PLM5203 OEMA-OEJN

Flight info

Callsign PLM5203
Flight time 0h 49m
Altitude 36000
Route SISUD B544 RBG/N0457F350 B544 NOMDA
Aircraft A333/H-SDE3GHIJ2J3J5M1RVWXY/LB2D1

Departure

Time 2026-04-30 14:02
Airport Prince Mohammad Bin Abdulaziz Airport (OEMA)

Arrival

Time 2026-04-30 14:51
Airport King Abdulaziz International Airport (OEJN)
Time Latitude Longitude Altitude Speed Heading
2026-04-30 13:53 24.55727 39.71475 2108 ft 0 kts 349°
2026-04-30 13:54 24.55727 39.71474 2108 ft 1 kts 349°
2026-04-30 13:54 24.55754 39.71469 2108 ft 6 kts 348°
2026-04-30 13:55 24.55822 39.71454 2108 ft 13 kts 349°
2026-04-30 13:55 24.55915 39.71436 2108 ft 14 kts 349°
2026-04-30 13:55 24.56018 39.71415 2108 ft 16 kts 349°
2026-04-30 13:55 24.56080 39.71368 2108 ft 10 kts 291°
2026-04-30 13:56 24.56082 39.71304 2108 ft 11 kts 261°
2026-04-30 13:56 24.56071 39.71257 2108 ft 12 kts 254°
2026-04-30 13:56 24.56041 39.71142 2108 ft 19 kts 255°
2026-04-30 13:56 24.56010 39.70997 2109 ft 20 kts 258°
2026-04-30 13:57 24.55986 39.70885 2111 ft 6 kts 230°
2026-04-30 13:57 24.55936 39.70885 2111 ft 12 kts 169°
2026-04-30 13:57 24.55822 39.70908 2110 ft 21 kts 169°
2026-04-30 13:57 24.55652 39.70946 2110 ft 29 kts 168°
2026-04-30 13:58 24.55444 39.70991 2110 ft 31 kts 169°
2026-04-30 13:58 24.55025 39.71084 2110 ft 31 kts 169°
2026-04-30 13:58 24.54812 39.71129 2111 ft 31 kts 169°
2026-04-30 13:59 24.54599 39.71167 2111 ft 31 kts 169°
2026-04-30 13:59 24.54386 39.71217 2110 ft 31 kts 167°
2026-04-30 13:59 24.54170 39.71262 2111 ft 31 kts 169°
2026-04-30 13:59 24.53957 39.71310 2111 ft 31 kts 168°
2026-04-30 14:00 24.53835 39.71287 2112 ft 15 kts 247°
2026-04-30 14:00 24.53849 39.71138 2115 ft 0 kts 350°
2026-04-30 14:01 24.53893 39.71130 2115 ft 27 kts 349°
2026-04-30 14:01 24.54312 39.71040 2116 ft 94 kts 348°
2026-04-30 14:01 24.55156 39.70863 2114 ft 152 kts 348°
2026-04-30 14:01 24.56344 39.70607 2369 ft 184 kts 349°
2026-04-30 14:02 24.57583 39.70330 3304 ft 179 kts 347°
2026-04-30 14:02 24.58799 39.70032 4180 ft 181 kts 347°
2026-04-30 14:02 24.60122 39.69754 4574 ft 207 kts 347°
2026-04-30 14:02 24.61632 39.69448 4858 ft 235 kts 347°
2026-04-30 14:03 24.63306 39.69104 5354 ft 251 kts 347°
2026-04-30 14:03 24.65040 39.68695 6072 ft 258 kts 340°
2026-04-30 14:03 24.66602 39.67730 6821 ft 259 kts 313°
2026-04-30 14:03 24.67525 39.66050 7500 ft 264 kts 284°
2026-04-30 14:04 24.67609 39.64007 8033 ft 275 kts 263°
2026-04-30 14:04 24.67322 39.61898 8714 ft 282 kts 259°
2026-04-30 14:04 24.66980 39.59744 9400 ft 288 kts 259°
2026-04-30 14:04 24.66643 39.57560 10118 ft 292 kts 260°
2026-04-30 14:05 24.66304 39.55297 10572 ft 310 kts 260°
2026-04-30 14:05 24.65952 39.52879 10908 ft 330 kts 261°
2026-04-30 14:05 24.65592 39.50340 11462 ft 340 kts 261°
2026-04-30 14:05 24.65227 39.47753 12223 ft 345 kts 261°
2026-04-30 14:06 24.64857 39.45133 13033 ft 348 kts 261°
2026-04-30 14:06 24.64112 39.39867 14791 ft 349 kts 261°
2026-04-30 14:07 24.62979 39.34735 16380 ft 352 kts 241°
2026-04-30 14:07 24.61366 39.32701 17125 ft 359 kts 219°
2026-04-30 14:07 24.59108 39.31486 17831 ft 369 kts 198°
2026-04-30 14:08 24.53895 39.31929 19102 ft 390 kts 169°
2026-04-30 14:08 24.51247 39.32658 19684 ft 394 kts 172°
2026-04-30 14:08 24.45831 39.33759 20894 ft 398 kts 176°
2026-04-30 14:09 24.43075 39.34190 21469 ft 402 kts 177°
2026-04-30 14:09 24.40297 39.34584 22058 ft 404 kts 178°
2026-04-30 14:09 24.34664 39.35325 23067 ft 411 kts 178°
2026-04-30 14:10 24.31816 39.35688 23606 ft 413 kts 178°
2026-04-30 14:10 24.28953 39.36048 24165 ft 415 kts 179°
2026-04-30 14:10 24.26073 39.36408 24659 ft 418 kts 179°
2026-04-30 14:10 24.23169 39.36770 25148 ft 421 kts 179°
2026-04-30 14:11 24.20254 39.37132 25604 ft 424 kts 179°
2026-04-30 14:11 24.17304 39.37498 26037 ft 427 kts 179°
2026-04-30 14:11 24.14344 39.37866 26489 ft 430 kts 179°
2026-04-30 14:11 24.11359 39.38238 26936 ft 433 kts 180°
2026-04-30 14:12 24.08358 39.38611 27364 ft 435 kts 180°
2026-04-30 14:12 24.05337 39.38985 27771 ft 438 kts 180°
2026-04-30 14:12 24.02331 39.39357 28167 ft 441 kts 180°
2026-04-30 14:12 24.00271 39.39612 28437 ft 443 kts 180°
2026-04-30 14:13 23.96197 39.40117 28988 ft 445 kts 180°
2026-04-30 14:13 23.93113 39.40500 29395 ft 447 kts 181°
2026-04-30 14:13 23.89998 39.40885 29712 ft 451 kts 181°
2026-04-30 14:13 23.86877 39.41271 30086 ft 453 kts 181°
2026-04-30 14:14 23.83735 39.41658 30440 ft 456 kts 181°
2026-04-30 14:14 23.80575 39.42049 30764 ft 458 kts 181°
2026-04-30 14:14 23.77402 39.42313 31044 ft 455 kts 187°
2026-04-30 14:14 23.74267 39.42116 31289 ft 449 kts 196°
2026-04-30 14:15 23.72241 39.41685 31548 ft 444 kts 200°
2026-04-30 14:15 23.68260 39.40508 32024 ft 443 kts 204°
2026-04-30 14:15 23.65315 39.39498 32448 ft 441 kts 205°
2026-04-30 14:15 23.62407 39.38455 32968 ft 438 kts 205°
2026-04-30 14:16 23.59524 39.37412 33463 ft 435 kts 206°
2026-04-30 14:16 23.56648 39.36374 33896 ft 434 kts 206°
2026-04-30 14:16 23.53822 39.35369 34285 ft 433 kts 205°
2026-04-30 14:16 23.50945 39.34361 34661 ft 433 kts 205°
2026-04-30 14:17 23.48072 39.33365 34968 ft 434 kts 205°
2026-04-30 14:17 23.45190 39.32369 35252 ft 435 kts 205°
2026-04-30 14:17 23.42296 39.31372 35575 ft 435 kts 205°
2026-04-30 14:17 23.39412 39.30381 35839 ft 436 kts 205°
2026-04-30 14:18 23.36534 39.29394 35907 ft 431 kts 205°
2026-04-30 14:18 23.28031 39.26471 35907 ft 425 kts 205°
2026-04-30 14:19 23.19572 39.23555 35909 ft 425 kts 205°
2026-04-30 14:20 23.13965 39.21626 35906 ft 426 kts 205°
2026-04-30 14:20 23.05488 39.18720 35887 ft 426 kts 205°
2026-04-30 14:21 22.99830 39.16780 35888 ft 427 kts 205°
2026-04-30 14:22 22.91328 39.13868 35880 ft 427 kts 205°
2026-04-30 14:22 22.82825 39.10966 35851 ft 428 kts 203°
2026-04-30 14:23 22.76876 39.09873 35851 ft 442 kts 189°
2026-04-30 14:23 22.70700 39.09921 35857 ft 446 kts 186°
2026-04-30 14:24 22.61378 39.10231 35852 ft 446 kts 186°
2026-04-30 14:25 22.48968 39.10588 35264 ft 437 kts 187°
2026-04-30 14:26 22.43015 39.10621 33437 ft 427 kts 188°
2026-04-30 14:26 22.40058 39.10633 32491 ft 423 kts 188°
2026-04-30 14:26 22.34206 39.10661 30585 ft 416 kts 188°
2026-04-30 14:27 22.31332 39.10674 29639 ft 411 kts 188°
2026-04-30 14:27 22.28489 39.10687 28692 ft 407 kts 188°
2026-04-30 14:27 22.25668 39.10700 27729 ft 403 kts 187°
2026-04-30 14:28 22.20139 39.10730 26003 ft 391 kts 186°
2026-04-30 14:28 22.17436 39.10744 25153 ft 386 kts 185°
2026-04-30 14:28 22.15666 39.10753 24591 ft 383 kts 185°
2026-04-30 14:28 22.13034 39.10766 23749 ft 378 kts 185°
2026-04-30 14:29 22.07954 39.10145 22142 ft 357 kts 202°
2026-04-30 14:29 22.03373 39.08385 20633 ft 344 kts 204°
2026-04-30 14:30 21.96775 39.05769 18383 ft 330 kts 204°
2026-04-30 14:31 21.92524 39.04098 16906 ft 322 kts 204°
2026-04-30 14:31 21.88360 39.02467 15431 ft 314 kts 203°
2026-04-30 14:31 21.86348 39.01678 14723 ft 309 kts 203°
2026-04-30 14:32 21.82360 39.00117 13327 ft 300 kts 203°
2026-04-30 14:32 21.80448 38.99372 13014 ft 283 kts 203°
2026-04-30 14:32 21.78625 38.98746 12988 ft 268 kts 194°
2026-04-30 14:33 21.76797 38.98725 12987 ft 263 kts 173°
2026-04-30 14:33 21.73324 38.99968 12997 ft 264 kts 163°
2026-04-30 14:33 21.71609 39.00673 12998 ft 264 kts 163°
2026-04-30 14:34 21.69889 39.01378 12909 ft 265 kts 163°
2026-04-30 14:34 21.68166 39.02076 12646 ft 264 kts 164°
2026-04-30 14:34 21.66449 39.02766 12450 ft 262 kts 164°
2026-04-30 14:34 21.64743 39.03441 12307 ft 260 kts 164°
2026-04-30 14:35 21.61346 39.04775 11959 ft 259 kts 165°
2026-04-30 14:35 21.59652 39.05439 11790 ft 259 kts 165°
2026-04-30 14:35 21.57985 39.06091 11605 ft 258 kts 164°
2026-04-30 14:36 21.56299 39.06752 11442 ft 258 kts 164°
2026-04-30 14:36 21.54620 39.07409 11255 ft 257 kts 163°
2026-04-30 14:36 21.52934 39.08070 11084 ft 257 kts 163°
2026-04-30 14:36 21.51259 39.08730 10908 ft 256 kts 163°
2026-04-30 14:37 21.49591 39.09391 10750 ft 256 kts 163°
2026-04-30 14:37 21.47917 39.10053 10559 ft 256 kts 163°
2026-04-30 14:37 21.46248 39.10712 10391 ft 256 kts 163°
2026-04-30 14:37 21.44577 39.11370 10216 ft 255 kts 163°
2026-04-30 14:38 21.42911 39.12028 10050 ft 255 kts 162°
2026-04-30 14:38 21.41249 39.12686 9843 ft 255 kts 162°
2026-04-30 14:38 21.39587 39.13345 9607 ft 254 kts 162°
2026-04-30 14:38 21.37929 39.14002 9313 ft 254 kts 162°
2026-04-30 14:39 21.36273 39.14657 8994 ft 254 kts 162°
2026-04-30 14:39 21.34608 39.15313 8664 ft 255 kts 162°
2026-04-30 14:39 21.32941 39.15970 8351 ft 256 kts 161°
2026-04-30 14:40 21.29626 39.17281 7776 ft 252 kts 161°
2026-04-30 14:40 21.27982 39.17931 7499 ft 251 kts 161°
2026-04-30 14:40 21.26375 39.18663 7235 ft 252 kts 150°
2026-04-30 14:40 21.25132 39.19957 6960 ft 252 kts 120°
2026-04-30 14:41 21.24715 39.21744 6691 ft 249 kts 86°
2026-04-30 14:41 21.25092 39.23537 6412 ft 246 kts 70°
2026-04-30 14:41 21.25686 39.25256 6098 ft 247 kts 68°
2026-04-30 14:41 21.26362 39.26953 5713 ft 249 kts 59°
2026-04-30 14:42 21.27523 39.28309 5278 ft 250 kts 28°
2026-04-30 14:42 21.29158 39.28740 5034 ft 240 kts 353°
2026-04-30 14:42 21.30735 39.28342 4951 ft 229 kts 340°
2026-04-30 14:42 21.32222 39.27760 4845 ft 227 kts 338°
2026-04-30 14:43 21.33699 39.27152 4659 ft 227 kts 338°
2026-04-30 14:43 21.35172 39.26552 4454 ft 226 kts 338°
2026-04-30 14:43 21.36628 39.25972 4248 ft 226 kts 338°
2026-04-30 14:43 21.38101 39.25385 4068 ft 225 kts 338°
2026-04-30 14:44 21.39561 39.24802 3874 ft 223 kts 338°
2026-04-30 14:44 21.41015 39.24225 3663 ft 223 kts 339°
2026-04-30 14:44 21.42473 39.23650 3457 ft 222 kts 339°
2026-04-30 14:44 21.43916 39.23081 3257 ft 221 kts 338°
2026-04-30 14:45 21.45356 39.22514 3115 ft 216 kts 339°
2026-04-30 14:45 21.46745 39.21963 3012 ft 210 kts 338°
2026-04-30 14:45 21.48098 39.21431 2935 ft 202 kts 339°
2026-04-30 14:45 21.49382 39.20927 2882 ft 191 kts 339°
2026-04-30 14:46 21.50593 39.20457 2798 ft 180 kts 339°
2026-04-30 14:46 21.51741 39.20012 2755 ft 169 kts 338°
2026-04-30 14:46 21.52801 39.19595 2695 ft 158 kts 338°
2026-04-30 14:46 21.53817 39.19195 2702 ft 153 kts 338°
2026-04-30 14:47 21.54797 39.18810 2575 ft 147 kts 338°
2026-04-30 14:47 21.55748 39.18434 2383 ft 145 kts 338°
2026-04-30 14:47 21.56686 39.18063 2187 ft 143 kts 338°
2026-04-30 14:47 21.57605 39.17699 1994 ft 142 kts 338°
2026-04-30 14:48 21.58521 39.17338 1805 ft 137 kts 339°
2026-04-30 14:48 21.59380 39.16998 1625 ft 128 kts 339°
2026-04-30 14:48 21.60207 39.16670 1456 ft 126 kts 339°
2026-04-30 14:48 21.61026 39.16343 1301 ft 126 kts 339°
2026-04-30 14:49 21.61840 39.15999 1100 ft 126 kts 337°
2026-04-30 14:49 21.62642 39.15647 937 ft 124 kts 339°
2026-04-30 14:49 21.63459 39.15340 795 ft 124 kts 341°
2026-04-30 14:49 21.64282 39.15046 644 ft 125 kts 340°
2026-04-30 14:50 21.65918 39.14401 299 ft 125 kts 339°
2026-04-30 14:50 21.66738 39.14076 137 ft 126 kts 339°
2026-04-30 14:51 21.68159 39.13521 34 ft 81 kts 340°
2026-04-30 14:51 21.68628 39.13335 33 ft 65 kts 340°
2026-04-30 14:51 21.69148 39.13193 30 ft 29 kts
2026-04-30 14:52 21.69209 39.13204 29 ft 0 kts 12°
2026-04-30 14:53 21.69239 39.13212 29 ft 8 kts 14°
2026-04-30 14:53 21.69309 39.13238 29 ft 13 kts 25°
2026-04-30 14:54 21.69427 39.13446 29 ft 14 kts 48°
2026-04-30 14:54 21.69606 39.13404 28 ft 16 kts 338°
2026-04-30 14:55 21.69767 39.13363 28 ft 6 kts 46°
2026-04-30 14:55 21.69786 39.13408 28 ft 8 kts 70°
2026-04-30 14:55 21.69794 39.13434 28 ft 0 kts 71°